Kahului, HI

7:00 AM HST on February 08, 2016 (GMT -1000)
Kahului | | Change Station
CLOSE
Current Station
Airport
Location: Kahului,
Elevation: 49 ft
Nearby Weather Stations
Active Advisory: High Surf Advisory

Elev 49 ft 20.90 °N, 156.43 °W | Updated 6 minutes ago

Scattered Clouds
Scattered Clouds
68 °F
Feels Like 68 °F
N
17
Wind Variable Wind from NNE

Today
High -- | Low -- °F
--% Chance of Precip.
Yesterday
High -- | Low -- °F
Precip. -- in
Pressure 30.08 in
Visibility 10.0 miles
Clouds Scattered Clouds 4500 ft
Dew Point 50 °F
Humidity 52%
Rainfall 0.00 in
Snow Depth Not available.
6:59 AM 6:20 PM
New Moon, 0% visible
METAR PHOG 081654Z 02015KT 10SM SCT045 20/10 A3007 RMK AO2 SLP186 T02000100 $
Pressure 30.08 in
Visibility 10.0 miles
Clouds Scattered Clouds 4500 ft
Dew Point 50 °F
Humidity 52%
Rainfall 0.00 in
Snow Depth Not available.
6:59 AM 6:20 PM
New Moon, 0% visible
METAR PHOG 081654Z 02015KT 10SM SCT045 20/10 A3007 RMK AO2 SLP186 T02000100 $

10-Day Weather Forecast

Almanac

Astronomy

Feb. 08, 2016 Rise Set
Actual Time
Civil Twilight
Nautical Twilight
Astronomical Twilight
Moon
Length of Visible Light
Length of Day
Tomorrow will be .
, % of the Moon is Illuminated

Today's Extremes

State Highs State Lows

Community

WunderPhotos

Upload Photos

1,891,462 photos uploaded!

WunderBlog® & News

Nearby

Air Quality

  Air Quality AQ Index Pollutant
Not available.

Snow Depth

Station Depth Elevation

Earthquake Activity

City Distance Mag. Time & Date
Minimum magnitude displayed is 2.5.

Coastal Water Temperatures

Place Temperature

Stations

Nearby Weather Stations

Station Location Temp. Windchill Dew Point Humidity Wind Precip. Elev Updated Type
                   

Watches & Warnings

High Surf Advisory
Issued: 3:08 AM HST Feb. 8, 2016 – National Weather Service

... High surf advisory now in effect until 6 am HST Tuesday...

* surf... along north and west facing shores of Kauai and Niihau
and north facing shores of Oahu Molokai and Maui... 12 to 16 feet.

* Timing... through 6 am HST Tuesday.

* Impacts... moderate... expect strong breaking waves... shore
break... and strong longshore and rip currents making swimming
difficult and dangerous.

Precautionary/preparedness actions...

Beachgoers... swimmers... and surfers should heed all advice given
by ocean safety officials and exercise caution.